User: anonymous   Login
Location: Unspecified
(48.2082°N, 0.0000°E)
Time: 11:22:02
(UTC+00:00)
Language:

Vanguard 1 Rocket - Orbit

View from above orbital plane
View from above orbital plane
View from above satellite
View from above satellite

Ground track
Ground track

The orbit data is extracted from the following two-line orbital elements,

1    16U 58002A   19168.19873057 -.00000009  00000-0 -79955-6 0  9999
2    16  34.2597 132.1991 2026029 133.4628 245.3341 10.48746876420372
Epoch (UTC): 17 June 2019 04:46:10
Eccentricity: 0.2026029
inclination: 34.2597°
perigee height: 652 km
apogee height: 4224 km
right ascension of ascending node: 132.1991°
argument of perigee: 133.4628°
revolutions per day: 10.48746876
mean anomaly at epoch: 245.3341°
orbit number at epoch: 42037

The dashed part of the orbit path shows where the satellite is in the earth's shadow,  

DLR